Theta_e
318 317 314 309 299 296 291 294 296 296 296 297 298 298 298 296 299 296 305 303 303 305 309 321 330 332 334 336 338 339 340 342 343 343 343 344 345 346 346 346 347 345 346 347 347 346 346 347 347
315 315 310 300 294 290 291 294 294 296 297 296 296 296 297 295 298 299 301 302 301 303 307 318 324 325 327 329 330 332 335 336 337 337 338 339 339 341 342 343 343 344 345 345 346 345 347 347 347
314 310 305 295 290 290 291 294 295 296 296 297 295 296 295 295 298 298 300 300 299 302 305 314 319 321 322 323 325 326 327 326 326 328 331 333 333 334 336 337 337 339 341 344 345 345 346 348 347
310 307 298 294 292 294 295 295 296 295 296 297 295 294 295 298 298 298 298 298 297 299 302 311 315 317 318 319 320 321 321 320 320 321 322 322 323 327 329 330 332 335 337 339 341 342 343 345 345
302 300 293 291 292 294 294 296 296 295 296 295 295 293 293 296 297 296 296 296 296 297 299 306 311 313 314 315 316 316 317 316 316 316 316 316 319 321 319 319 321 325 329 332 336 337 338 340 342
300 297 292 290 291 294 295 296 296 295 295 294 294 292 293 297 295 295 295 295 296 296 297 298 303 307 309 310 311 312 312 312 312 312 311 311 313 314 313 313 315 317 319 320 323 328 332 335 337
299 295 292 291 290 293 295 295 294 294 294 295 295 292 293 293 295 295 294 295 295 295 296 295 297 299 302 305 306 307 308 308 308 308 307 306 307 309 308 308 311 313 314 314 315 317 321 327 333
297 295 291 289 290 292 295 295 295 296 295 295 295 292 292 294 295 294 294 294 293 293 294 294 295 296 296 297 302 303 304 304 304 304 303 302 302 304 304 304 306 309 310 310 311 313 318 321 326
301 293 290 291 290 293 294 294 294 294 293 292 293 293 293 294 293 292 292 292 291 292 292 293 293 294 295 295 295 297 299 299 299 298 300 298 298 298 299 300 302 305 306 307 308 311 312 309 308
296 291 293 294 293 294 294 295 294 293 291 291 290 291 291 292 291 290 290 290 289 289 290 291 291 292 293 293 293 294 294 294 295 295 295 296 296 296 296 296 297 299 301 303 305 308 307 304 304
294 291 294 295 296 295 294 293 293 292 291 294 292 289 290 290 289 289 289 289 289 289 289 290 290 291 292 292 292 292 293 293 293 294 294 294 293 294 294 294 293 295 296 298 300 302 303 302 302
293 294 295 297 297 295 294 293 292 292 296 295 293 292 290 289 288 288 288 288 288 288 289 289 290 290 291 291 291 291 292 292 292 292 292 292 292 291 291 291 292 293 295 297 299 300 300 300 301
293 293 295 296 295 294 293 293 293 291 294 292 290 289 289 289 288 288 289 288 288 287 288 289 290 290 290 290 290 290 290 291 291 290 291 290 289 288 290 290 291 291 293 294 295 297 297 298 299
293 294 294 295 294 293 293 292 292 293 289 288 288 288 289 289 288 286 286 286 287 287 288 289 289 289 290 289 289 289 290 290 290 289 289 289 288 287 288 288 288 289 290 290 292 293 295 296 298
293 291 292 292 293 293 292 290 290 292 288 288 287 287 288 288 287 287 287 286 287 287 288 288 289 289 288 288 289 289 289 288 288 287 288 287 287 286 286 286 286 286 287 287 288 290 293 295 295
290 289 287 291 292 292 292 288 293 289 288 289 286 286 287 287 287 286 286 286 286 287 287 288 290 288 288 288 288 288 288 287 287 287 286 286 286 285 285 284 285 285 285 286 286 287 288 290 292
288 285 285 288 291 290 290 289 292 288 287 288 286 286 286 287 286 286 286 285 285 286 286 287 288 288 288 288 287 287 287 287 286 286 285 285 285 285 284 284 284 284 284 284 284 285 285 285 287
284 284 285 285 289 288 287 288 293 290 287 289 289 287 286 286 287 287 285 285 285 286 286 287 287 287 287 287 287 286 285 285 285 285 284 285 284 284 283 283 283 283 282 283 283 283 284 285 288
287 286 285 286 287 287 286 288 292 294 287 289 288 286 286 286 289 287 285 284 284 284 284 285 285 286 286 285 284 283 283 284 283 284 283 284 283 283 282 282 282 282 282 281 282 282 281 284 286
285 284 284 286 286 286 285 286 290 291 293 293 291 288 287 287 285 284 284 283 283 284 284 284 285 285 285 284 284 284 283 283 283 283 283 283 282 282 281 281 281 281 281 281 281 281 281 282 283
284 283 283 285 284 284 282 281 283 287 289 290 291 290 288 288 286 284 283 282 283 283 283 284 284 285 285 285 284 283 283 282 281 281 281 282 281 281 281 281 281 280 281 280 280 280 279 278 280
284 285 284 283 282 279 283 280 282 286 288 289 291 287 289 287 288 285 283 282 282 283 284 284 284 284 285 284 283 281 280 279 280 280 281 280 281 280 280 280 280 280 280 279 280 280 279 278 277
285 284 283 282 280 277 279 277 282 281 285 289 291 288 287 287 287 285 283 284 283 284 283 284 284 284 284 284 283 281 279 279 280 279 278 278 279 279 279 280 280 279 280 279 279 279 278 278 277
285 283 282 278 277 273 281 280 279 281 285 287 289 289 288 285 284 285 284 284 283 284 283 283 282 282 283 282 281 280 279 278 277 277 276 277 277 278 278 279 279 279 279 278 279 278 278 277 277
283 282 278 275 273 277 276 276 284 285 286 288 291 289 286 284 282 282 282 282 282 282 282 282 281 281 281 281 280 279 278 277 276 276 276 275 275 276 276 277 277 278 278 278 278 277 277 277 277
282 283 278 271 273 279 275 275 283 286 290 288 286 285 283 283 281 281 282 282 282 282 282 282 281 281 280 279 279 278 277 277 276 276 275 274 274 275 276 276 277 277 277 277 277 277 277 277 277
281 280 283 277 263 270 280 281 284 285 285 284 284 281 282 282 280 280 281 282 282 282 282 281 281 280 279 279 278 277 276 275 274 274 274 274 274 275 275 276 275 276 276 276 276 276 276 276 276
282 283 278 277 272 268 279 281 283 284 286 287 285 285 283 282 280 280 280 281 282 282 281 280 280 279 278 278 276 276 275 274 274 274 273 273 274 274 274 274 274 274 275 275 275 275 275 275 275
278 278 278 280 277 273 274 281 283 286 286 287 287 285 284 283 280 279 280 281 281 281 280 279 278 277 276 276 275 274 274 273 273 272 272 272 273 273 273 273 273 273 273 273 273 272 273 272 273
280 281 282 278 275 273 273 280 287 286 287 286 287 285 284 283 281 279 279 279 280 280 278 277 276 276 275 275 273 272 272 272 271 271 271 272 272 273 272 272 272 272 271 271 271 270 271 271 271
Wind_Speed
3 4 2 4 4 5 1 3 1 3 3 0 2 2 5 4 2 3 6 6 6 6 9 10 15 17 16 16 18 17 18 18 18 18 18 18 17 15 13 11 10 10 12 12 11 11 10 7 6
2 2 4 3 5 3 3 2 5 4 5 7 5 2 2 2 1 4 3 6 5 5 7 9 14 17 17 17 18 17 17 18 19 19 18 17 17 17 17 16 15 14 13 13 13 14 11 9 9
3 4 3 5 4 4 4 4 5 2 8 3 4 3 5 5 2 4 3 5 6 8 8 9 15 16 16 17 17 18 18 18 17 18 17 17 17 17 17 17 17 16 16 15 14 14 15 12 9
3 4 4 4 3 3 3 5 5 9 2 2 3 4 1 0 5 5 6 6 9 7 7 10 14 15 16 17 17 17 17 18 18 18 18 17 17 17 18 17 18 18 18 18 17 16 16 14 13
4 3 4 3 2 2 4 5 9 8 4 4 4 5 3 1 6 8 8 7 9 7 6 8 14 15 16 17 17 17 17 17 18 19 18 18 17 18 18 18 18 18 20 21 20 18 18 18 16
4 3 4 2 3 3 3 5 6 4 3 3 3 7 5 5 8 7 7 7 6 7 6 7 10 15 17 16 16 17 17 17 17 17 17 17 16 16 17 17 16 16 17 18 19 20 21 19 18
6 4 3 2 3 2 5 8 5 7 7 6 7 8 2 8 8 9 8 6 6 6 7 7 7 9 14 16 16 16 16 16 16 17 17 16 16 16 17 17 18 17 17 17 17 19 19 20 21
5 5 3 3 4 5 6 4 1 4 4 3 4 6 5 9 11 8 6 6 6 6 6 6 6 7 7 8 16 16 17 17 18 18 17 17 17 17 17 17 18 18 18 17 17 18 18 20 20
3 5 2 4 5 3 3 3 2 1 5 3 5 4 1 12 12 8 5 4 4 4 5 5 6 7 6 9 10 13 17 17 16 14 16 11 9 10 11 14 18 19 18 18 18 15 15 17 16
4 4 6 4 4 2 4 4 6 3 3 5 4 2 4 14 14 13 10 9 5 4 4 4 5 6 7 6 7 7 8 7 8 10 11 10 10 9 10 10 13 15 16 17 18 17 16 13 9
2 5 4 3 4 2 4 3 5 6 6 10 10 9 12 11 12 12 9 8 7 4 3 4 4 5 5 5 4 4 4 5 6 10 10 9 8 8 7 6 7 7 11 7 11 11 9 12 9
1 1 3 2 3 4 4 7 4 8 6 1 6 14 15 16 15 14 13 11 10 7 5 4 4 4 5 4 4 4 5 5 6 8 11 8 6 8 8 6 9 8 7 10 9 7 10 11 11
2 2 3 3 3 3 5 7 6 9 9 1 6 12 17 15 13 9 9 7 9 8 7 6 4 4 4 5 4 5 6 6 6 7 8 7 7 7 7 7 7 8 9 8 9 10 10 11 11
3 2 4 3 2 2 4 2 0 4 6 6 10 15 15 16 16 8 10 11 12 9 9 7 5 4 5 5 5 4 4 4 4 4 5 7 6 6 7 7 7 7 8 9 9 10 10 10 10
2 3 5 4 2 4 4 8 12 4 5 8 11 12 13 15 12 17 15 12 12 9 8 7 6 5 5 4 3 2 2 3 2 4 6 6 7 7 7 6 6 7 8 10 8 10 10 10 10
2 4 2 3 4 1 5 11 9 6 8 12 11 11 14 16 14 12 13 10 9 9 9 8 7 7 6 4 3 1 0 1 3 3 4 5 5 6 7 6 6 8 7 7 8 8 9 10 10
5 4 4 7 8 3 6 11 6 5 7 11 11 14 14 12 11 14 13 12 13 12 11 9 8 8 5 4 2 0 2 2 3 3 4 5 6 6 7 6 7 7 7 7 7 8 9 10 10
6 4 5 7 4 4 5 18 18 7 9 18 14 13 14 16 23 16 15 12 12 11 10 8 7 7 5 2 0 2 2 3 3 4 5 7 6 8 8 7 7 6 6 6 7 9 9 9 10
3 4 8 5 4 4 10 17 20 20 9 17 15 12 16 22 13 12 14 13 11 9 10 10 9 7 5 2 1 2 3 3 3 4 6 6 8 9 8 6 7 7 8 10 10 10 12 9 9
3 3 8 8 2 6 8 19 15 17 22 16 19 13 17 13 12 15 17 15 14 14 12 10 9 8 7 4 3 2 2 3 4 4 5 7 9 10 8 8 8 9 9 11 10 11 10 8 6
5 7 5 8 5 4 7 10 8 8 9 13 13 10 13 18 18 17 19 20 15 15 15 13 11 9 8 8 3 2 2 3 3 3 5 7 9 11 10 10 9 9 8 9 11 10 12 11 9
5 6 3 2 3 5 3 18 4 7 11 9 11 11 14 15 14 16 19 19 19 16 13 12 11 9 8 8 6 6 4 3 3 4 6 8 9 11 10 10 10 10 9 11 10 9 10 11 12
7 3 4 1 3 3 4 6 5 3 8 19 10 9 10 12 15 17 20 22 21 17 13 12 11 8 7 8 7 5 6 5 6 6 8 9 10 10 10 9 10 10 9 11 13 13 12 11 12
5 4 4 4 2 2 9 11 5 7 11 9 10 7 7 8 11 12 13 15 16 14 13 12 12 9 8 7 7 7 8 6 6 6 7 7 6 6 9 9 10 12 12 12 12 14 16 14 14
3 6 6 6 3 11 5 4 13 7 12 13 14 8 6 7 8 9 13 16 16 18 15 12 13 11 9 8 7 7 7 7 8 8 6 9 7 7 9 10 11 11 13 14 14 15 16 16 14
6 9 9 10 6 20 4 12 11 17 16 7 6 7 5 7 7 12 15 16 17 18 16 14 12 10 9 7 7 6 6 4 5 7 7 7 7 8 11 11 13 15 16 15 15 12 13 16 14
6 7 3 3 2 6 7 14 7 6 13 4 13 6 10 9 10 13 13 15 16 17 17 15 12 10 8 8 5 5 4 5 6 8 8 6 9 9 12 13 14 16 16 16 16 13 16 15 16
6 5 4 2 4 8 18 31 19 12 16 11 12 15 11 8 8 10 12 14 13 14 13 13 12 11 8 7 4 3 4 5 6 7 8 9 11 12 14 15 15 16 16 16 16 15 17 17 14
4 3 1 2 5 7 13 18 5 8 10 13 13 8 9 10 10 11 12 13 14 13 13 13 11 9 8 6 4 3 4 5 6 7 8 10 11 13 14 15 16 16 17 16 16 18 19 19 19
3 9 10 7 8 4 3 37 3 1 9 8 8 7 7 8 9 10 12 13 15 15 12 13 10 9 7 5 3 2 3 5 6 7 9 10 12 13 15 15 16 17 17 17 18 18 18 19 19
Wind_Direction
90 111 93 44 62 64 118 218 167 154 162 20 57 175 151 62 142 176 168 40 19 349 342 0 38 44 45 44 41 40 39 36 34 32 29 27 22 13 3 353 345 337 333 330 324 327 331 330 318
112 113 46 80 86 77 260 227 202 191 136 125 84 82 69 127 130 126 144 22 37 16 6 37 48 53 51 51 52 50 49 44 41 37 34 30 23 18 15 10 5 352 338 326 322 315 321 325 320
117 34 87 96 117 162 189 198 177 100 146 151 114 34 155 161 126 126 89 65 55 42 16 47 58 59 57 57 56 54 52 50 45 41 38 34 27 23 22 14 5 1 351 342 329 321 320 321 315
104 22 44 82 164 217 201 170 150 135 221 126 133 133 102 24 158 131 116 92 76 49 23 56 59 61 59 59 57 57 55 51 46 42 40 40 33 31 27 20 15 9 359 350 341 337 329 325 324
40 54 58 90 219 230 236 181 157 166 158 147 176 179 187 165 118 122 116 105 93 75 50 47 65 61 60 57 58 56 54 51 46 43 39 37 33 35 31 23 19 13 7 2 353 343 338 336 323
49 97 62 235 233 240 252 164 158 165 137 145 129 149 201 149 148 141 126 117 103 89 63 53 47 56 57 55 54 54 52 50 47 43 41 39 36 35 28 23 18 15 10 4 354 346 346 334 328
115 91 201 200 231 220 215 148 175 165 157 224 139 153 228 189 167 146 133 112 91 76 70 58 52 60 56 57 54 53 47 45 43 39 37 34 29 30 26 20 14 10 5 2 358 351 340 339 337
104 88 123 232 206 254 179 132 97 156 194 83 158 198 219 192 157 144 123 105 90 78 72 58 52 52 62 54 50 49 45 43 39 33 30 25 22 19 18 13 8 6 2 360 355 352 349 348 343
136 69 210 235 159 244 159 151 26 46 123 231 200 176 302 135 139 137 141 140 112 87 66 57 52 45 41 50 42 42 40 38 35 31 26 20 18 15 16 5 3 359 357 356 352 349 354 349 343
89 112 217 191 205 253 183 185 169 167 169 242 251 197 124 143 158 167 176 168 162 132 94 74 71 62 55 60 50 50 45 40 35 29 22 17 12 6 6 3 0 356 350 350 351 347 349 353 343
186 166 208 227 212 190 165 214 162 160 229 221 207 164 165 168 177 177 178 174 167 147 118 80 73 77 77 65 57 51 48 38 31 30 26 16 9 4 3 357 358 351 352 345 345 344 345 338 335
159 197 200 266 184 153 196 131 221 201 230 98 213 169 168 179 184 184 179 176 167 159 137 122 106 101 80 76 63 51 43 39 33 25 20 13 10 4 358 352 349 353 353 344 342 333 328 325 321
163 239 218 277 266 223 143 231 234 239 239 153 145 164 181 186 192 191 181 170 161 162 166 167 135 96 81 66 51 44 37 33 28 25 20 15 7 354 346 350 348 348 345 343 334 331 326 319 312
181 263 276 294 261 242 230 279 236 239 137 164 170 190 191 191 188 173 177 179 184 173 172 163 117 95 85 70 55 47 38 29 28 18 13 13 5 356 344 338 343 347 346 338 330 324 319 311 311
124 316 320 221 210 239 168 287 230 197 173 192 203 200 198 204 188 193 186 186 179 177 161 160 143 133 118 115 99 75 47 31 4 358 1 360 352 343 335 332 333 338 334 329 328 325 317 309 309
80 60 38 213 159 223 151 265 267 161 168 226 214 208 204 207 207 197 189 183 172 163 173 174 165 159 159 142 112 125 135 11 354 344 326 308 321 324 328 325 332 336 332 328 328 323 318 314 306
1 248 222 300 197 142 180 272 235 155 205 243 221 215 210 211 212 204 193 181 177 177 173 175 174 176 162 148 148 245 339 322 312 295 297 299 309 324 317 316 320 330 325 321 319 322 319 314 309
225 244 251 240 223 207 209 256 271 221 212 241 232 215 209 213 216 200 190 185 179 176 173 172 175 175 165 137 69 335 282 255 267 279 288 296 317 310 302 305 301 313 316 313 313 311 316 304 306
162 196 236 246 232 205 230 249 258 271 234 251 242 212 211 221 212 192 185 183 178 176 172 178 173 183 160 156 196 225 234 265 274 266 278 292 292 286 291 300 309 321 325 321 316 314 315 315 328
164 211 259 284 262 198 272 262 258 254 257 248 248 226 222 221 194 189 186 184 187 182 184 177 183 177 183 176 188 188 219 247 257 268 272 264 278 284 295 314 321 321 321 319 313 316 319 311 334
205 193 225 232 338 255 313 267 237 274 248 264 244 223 213 212 203 195 189 190 185 188 186 184 181 178 184 184 171 197 260 273 281 280 280 283 289 298 313 311 309 307 308 305 306 298 307 304 308
235 207 203 290 40 250 360 294 244 246 270 255 257 203 220 208 207 197 193 192 192 191 186 182 177 178 181 177 184 195 215 241 222 245 270 287 284 282 286 287 286 291 295 297 297 292 289 294 287
225 120 136 144 212 27 256 273 233 14 266 264 266 221 219 209 200 196 195 196 193 185 183 184 177 174 170 175 187 199 228 241 264 277 281 275 267 265 276 284 289 286 286 287 287 286 278 272 270
137 98 68 65 103 245 222 202 164 183 211 257 268 238 211 207 203 202 195 191 191 181 179 177 178 182 173 173 186 209 232 254 270 282 282 276 281 286 285 290 291 285 283 283 284 280 271 269 267
92 66 322 315 334 250 140 214 259 228 232 220 236 245 215 213 195 186 182 187 185 188 182 179 179 184 178 178 187 206 230 248 267 281 287 296 305 299 296 298 290 282 279 277 277 274 269 269 265
170 167 167 247 258 289 140 246 271 222 242 234 248 251 231 225 193 195 194 194 190 186 180 182 178 179 175 178 201 212 233 248 264 274 281 289 288 289 297 289 283 279 278 277 278 275 269 268 263
180 189 170 92 121 298 238 261 288 221 259 261 252 230 242 230 200 200 194 194 191 185 180 178 179 176 172 185 197 222 242 259 275 283 280 288 289 293 294 290 285 285 284 283 282 274 274 271 268
181 164 95 351 251 261 269 276 268 214 236 238 246 237 226 235 206 200 197 193 193 186 170 175 175 172 169 175 194 226 256 278 281 285 299 301 296 294 293 290 290 291 288 286 282 278 275 274 271
139 212 225 185 156 200 278 281 185 185 199 216 235 228 212 217 210 202 198 192 187 179 171 170 164 156 166 172 180 251 296 299 302 305 304 292 294 292 291 294 296 294 293 290 286 279 280 277 275
178 192 171 185 238 240 135 273 343 79 213 217 234 205 223 223 211 202 192 181 183 183 171 166 160 164 154 147 157 251 288 296 296 289 280 293 294 294 298 302 300 297 296 294 288 286 284 281 276